Theta_e
331 331 329 331 330 331 329 328 321 317 316 321 322 326 328 329 330 327 326 325 324 322 322 322 324 325 325 326 326 326 326 327 328 328 328 326 325 324
333 332 330 331 331 332 331 329 327 321 315 321 321 324 326 325 326 324 325 325 323 322 323 320 319 319 321 322 322 325 324 324 323 323 323 322 321 320
332 330 332 331 330 329 329 329 328 322 316 319 322 322 322 322 323 324 326 325 322 320 320 318 316 315 319 317 316 316 321 321 319 319 319 318 316 315
331 330 330 332 329 330 329 327 323 322 319 316 318 320 320 321 323 323 325 326 323 321 318 317 317 316 317 316 316 316 314 314 314 315 314 314 313 311
331 331 328 328 328 329 327 324 323 322 321 318 317 320 320 323 323 323 322 324 325 321 317 316 315 315 314 313 311 310 308 307 307 308 309 310 309 307
329 329 330 329 329 327 326 325 323 321 322 319 318 318 320 322 323 320 319 323 322 325 321 317 315 313 311 310 310 308 305 303 303 303 303 302 302 303
326 327 325 327 325 324 325 323 322 322 320 318 317 318 319 319 318 319 318 319 318 321 317 315 312 308 308 309 308 306 304 303 302 301 301 300 299 300
324 328 327 321 319 315 317 316 321 322 320 320 319 318 318 317 318 315 316 313 312 318 314 312 310 306 305 305 305 303 302 302 301 300 299 298 298 298
327 326 326 325 324 322 311 312 312 311 317 322 320 319 318 317 315 314 313 314 313 317 315 309 309 306 304 304 303 302 301 300 300 300 299 298 297 296
329 327 327 328 325 325 325 323 322 323 323 324 323 322 323 320 319 318 320 320 320 321 315 307 307 303 304 301 302 301 299 299 299 299 298 297 297 298
330 330 329 326 308 310 324 321 320 319 312 310 312 311 310 312 318 322 320 318 315 315 317 311 307 303 301 300 299 301 299 299 299 298 297 296 296 296
329 323 309 319 306 310 324 321 319 320 321 321 320 318 315 317 309 324 323 316 315 312 318 312 307 306 300 301 299 297 296 299 299 298 298 297 297 297
326 323 315 303 303 306 313 323 320 321 315 321 321 324 325 326 326 327 327 322 318 317 321 317 309 308 309 302 300 299 299 299 295 296 297 298 297 295
326 324 310 303 304 306 316 303 304 314 323 322 321 322 323 324 324 326 330 328 330 326 324 323 315 311 311 305 302 303 304 305 301 302 298 298 297 296
327 309 298 299 299 306 302 303 306 325 325 324 322 322 325 321 322 329 328 325 325 324 326 322 320 316 315 310 304 302 301 304 303 302 302 297 295 294
309 312 310 310 310 312 310 310 327 328 326 325 325 326 325 322 327 328 321 321 315 312 312 313 312 314 308 306 305 301 302 300 303 302 299 299 301 299
322 324 325 321 321 322 324 324 326 327 324 324 323 322 324 326 326 326 321 317 311 308 306 308 307 302 298 304 302 300 300 301 302 299 297 296 297 298
323 323 324 324 319 321 322 322 325 323 325 324 325 324 325 325 324 323 319 315 311 309 306 305 303 300 300 298 299 300 300 299 299 298 298 295 294 293
326 325 324 325 324 322 322 323 322 323 326 324 322 322 322 322 314 319 318 315 313 309 306 305 303 299 295 295 294 292 297 296 296 293 296 296 293 294
326 326 325 325 326 325 324 323 323 323 323 324 324 322 321 320 318 317 317 315 314 309 304 304 302 299 296 295 296 290 289 295 293 294 293 292 289 290
323 325 327 327 326 326 326 325 324 323 322 322 324 323 322 320 319 318 316 306 308 309 305 302 300 294 300 298 292 290 289 290 291 291 290 288 289 290
321 322 323 325 325 325 325 325 324 320 321 323 322 324 323 322 319 318 317 314 313 313 304 299 301 300 296 292 290 291 290 290 291 291 291 291 287 284
321 320 319 320 322 323 322 321 320 320 321 322 322 322 323 322 322 321 318 316 314 305 299 297 296 294 291 293 291 291 291 291 292 289 290 290 291 292
Wind_Speed
3 4 4 2 2 3 3 3 4 4 3 3 4 4 6 9 17 16 18 28 26 23 19 13 14 14 13 14 13 11 12 10 9 9 7 8 8 7
3 5 3 3 1 2 2 2 3 8 5 2 5 5 10 9 16 17 20 22 22 24 18 15 15 14 15 14 13 11 11 9 8 8 9 8 9 9
1 2 4 2 3 3 2 4 7 10 11 6 6 7 15 17 13 16 14 11 10 17 18 16 14 12 13 11 6 9 9 9 9 9 10 10 12 13
5 5 3 5 5 5 4 9 10 11 14 16 10 9 11 14 13 15 11 8 9 15 16 14 13 15 13 12 10 10 9 10 11 11 12 12 13 13
5 4 3 7 8 7 8 11 11 11 12 14 12 8 7 10 10 11 11 9 9 16 12 9 11 12 12 11 11 11 11 11 12 12 12 12 12 13
5 2 4 9 11 10 10 12 12 12 11 11 12 10 5 9 9 12 10 8 9 9 8 9 9 12 12 12 13 14 13 13 12 11 11 11 11 10
7 7 6 8 12 11 10 11 14 12 11 11 11 7 11 9 10 8 9 8 6 7 7 6 6 6 6 10 13 15 13 12 11 11 10 9 9 10
4 6 9 13 15 15 16 11 11 16 13 10 10 11 9 10 8 10 10 9 6 4 7 6 6 5 5 4 11 12 11 11 11 10 9 8 8 7
5 7 8 8 12 13 16 16 15 13 10 14 13 12 13 12 11 9 8 6 6 8 9 6 4 6 5 6 11 11 10 10 9 8 7 6 5 6
8 8 8 12 13 15 15 14 12 10 9 8 10 9 6 10 8 9 7 6 8 6 6 6 5 5 5 4 8 9 9 8 7 6 6 6 6 7
8 9 10 12 12 15 15 14 13 10 10 12 9 8 9 12 9 6 6 9 6 5 4 6 4 5 3 3 4 8 7 8 8 7 6 4 4 8
8 9 12 11 12 14 15 14 14 11 12 9 2 2 4 2 4 6 7 8 5 3 4 5 8 5 3 3 5 4 4 7 8 8 6 5 7 3
8 7 5 9 12 14 13 13 15 14 10 9 5 1 2 4 4 4 4 6 7 4 8 6 6 4 3 5 4 5 6 5 5 5 9 8 6 4
9 7 4 9 12 12 10 14 15 14 9 8 7 4 4 6 4 4 5 4 3 6 9 6 6 5 5 4 4 6 6 5 5 5 5 5 5 4
8 8 10 11 12 8 15 18 16 10 8 8 9 7 6 5 4 6 5 6 6 6 6 2 3 6 5 5 5 4 5 4 5 3 5 5 5 5
11 6 4 6 3 9 8 10 10 10 10 10 9 8 7 5 4 6 4 3 4 4 6 7 6 4 3 3 5 4 4 5 4 4 3 2 1 6
9 5 4 5 6 5 5 8 6 4 8 7 7 8 6 7 5 5 4 4 4 4 2 4 7 9 6 5 5 4 3 3 5 4 3 1 2 3
7 6 4 7 8 7 8 8 9 7 5 5 6 6 7 7 6 5 4 5 5 5 4 4 4 4 3 5 9 4 4 4 3 4 2 2 1 3
6 7 6 6 8 9 8 5 4 4 4 7 7 6 6 7 7 8 7 7 5 6 6 6 5 3 3 4 3 13 3 4 3 2 2 2 2 3
6 8 8 8 6 7 7 7 5 6 5 5 7 8 7 8 7 8 9 7 6 5 7 8 7 6 6 6 5 2 10 4 3 1 1 1 4 15
7 8 7 9 9 7 6 7 6 8 9 6 4 6 6 5 6 8 7 10 9 8 9 8 6 8 6 7 6 4 2 7 4 1 1 1 3 3
9 9 7 5 7 8 6 7 8 7 8 9 8 5 6 8 8 8 9 6 7 7 4 7 8 6 3 5 3 5 4 3 3 3 2 3 2 2
10 10 9 9 6 7 8 7 6 5 5 7 8 8 7 7 7 7 6 7 6 9 10 7 3 4 3 4 6 5 7 5 4 3 3 10 10 7
Wind_Direction
241 232 214 283 321 259 163 169 161 141 91 42 82 49 96 115 134 131 126 116 118 124 131 131 128 117 130 115 107 100 94 93 91 93 104 85 78 71
249 212 207 242 113 41 134 138 154 134 117 80 89 108 112 103 121 119 122 116 113 127 134 116 107 104 92 91 101 99 91 103 116 106 94 97 93 93
215 256 252 131 95 51 115 128 105 112 110 98 97 90 108 112 110 109 116 113 117 120 122 118 112 104 99 110 117 108 120 130 117 114 110 106 100 89
227 223 226 111 139 135 108 102 112 121 121 112 99 97 102 109 111 111 114 115 118 115 109 121 143 156 154 152 140 130 131 124 117 110 104 95 88 87
358 320 177 148 124 102 96 112 116 122 118 129 114 100 120 122 105 104 108 108 103 115 119 118 111 116 119 123 118 117 114 110 106 102 96 95 91 83
329 60 134 136 112 112 104 115 120 121 122 128 113 130 144 121 113 119 127 121 134 131 111 107 104 99 106 112 115 116 116 114 109 105 102 95 90 87
44 50 47 101 110 106 117 118 127 120 120 121 122 137 121 128 121 122 119 122 104 120 116 116 114 104 111 101 113 121 115 112 114 108 103 99 96 102
76 69 80 92 95 100 97 86 111 132 132 123 132 122 115 123 133 137 133 137 134 146 127 127 127 123 127 105 118 121 120 119 110 108 105 106 114 127
108 89 88 101 110 107 93 88 81 71 105 133 126 132 138 147 144 138 145 152 134 148 131 129 123 97 105 114 121 121 121 122 115 108 113 128 151 176
96 96 105 118 127 124 121 113 105 100 105 115 128 136 127 139 141 151 139 127 127 144 142 129 127 111 95 93 126 121 129 131 128 144 157 177 196 206
104 108 108 108 114 123 121 112 109 98 78 91 103 109 128 136 158 146 139 139 145 145 176 106 146 108 127 135 151 161 159 168 176 180 193 229 293 274
83 85 78 114 113 120 127 127 128 139 134 133 94 50 84 210 241 161 160 150 149 129 202 116 143 135 149 167 168 170 191 217 211 206 210 244 304 357
112 103 94 106 126 129 137 144 149 149 134 156 164 154 208 224 216 209 143 151 169 184 177 125 161 179 152 144 175 178 191 193 199 209 218 230 259 0
124 111 115 117 115 123 133 127 130 135 152 162 180 194 186 197 210 173 119 90 181 187 167 144 156 166 156 162 166 172 200 193 181 198 190 197 196 73
109 105 115 113 117 114 134 146 150 155 163 169 185 189 197 184 181 97 87 74 60 100 129 123 126 181 172 166 160 159 139 188 190 177 169 158 162 173
112 112 129 118 124 119 140 166 175 169 174 178 185 182 171 176 153 136 139 130 88 60 35 46 34 75 104 67 110 137 169 171 165 114 98 3 251 167
132 138 162 126 126 150 169 184 212 228 178 182 172 172 168 156 161 148 142 154 144 145 124 63 66 78 72 115 122 140 137 87 104 113 91 345 354 79
147 166 180 158 159 177 188 204 219 199 165 165 145 149 159 170 168 158 158 172 162 165 154 143 117 72 55 66 31 134 98 110 103 88 95 126 280 86
176 184 192 196 176 184 197 201 157 186 172 175 162 162 164 184 168 175 187 183 177 169 151 155 151 127 140 174 158 39 108 100 90 53 211 213 191 153
224 189 193 205 210 187 192 190 183 177 203 205 172 179 183 182 174 183 193 189 187 153 164 172 176 193 171 165 141 73 15 92 96 247 44 5 67 97
219 237 213 197 203 204 197 197 187 190 192 204 196 179 181 179 187 198 192 193 184 166 175 175 161 116 115 109 107 141 65 60 61 161 85 275 277 195
209 225 245 220 201 200 203 202 202 197 189 194 201 189 187 197 205 201 198 188 193 172 146 135 145 132 106 121 121 123 133 135 194 209 149 163 210 264
207 210 221 238 246 200 201 205 208 205 197 193 197 199 199 207 207 209 191 196 160 139 146 138 99 62 66 95 123 132 130 158 162 209 248 207 235 229